Regional Weather Roundup
Issued by NWS

Home | Current Version | Previous Version | Graphics & Text | Print | Product List | Glossary On
Versions: 1 2 3 4 5 6 7 8 9 10 11 12 13 14 15 16 17 18 19 20 21 22 23 24 25 26 27 28 29 30 31 32 33 34 35 36 37 38 39 40 41 42 43 44 45 46 47 48 49 50
000
ASUS43 KTOP 311508
RWRKS

WEATHER ROUNDUP FOR KANSAS
NATIONAL WEATHER SERVICE GOODLAND KS
900 AM CST SAT JAN 31 2015

NOTE:  "FAIR" INDICATES FEW OR NO CLOUDS BELOW 12,000 FEET WITH NO
SIGNIFICANT WEATHER AND/OR OBSTRUCTIONS TO VISIBILITY.

KSZ001>006-013>018-027>032-041>047-311600-
NORTHWEST KANSAS

CITY           SKY/WX    TMP DP  RH WIND       PRES   REMARKS
GOODLAND       CLOUDY    35  33  92 S5        29.90R
HAYS           CLOUDY    34  27  75 SE6       30.03S
HILL CITY      CLOUDY    35  33  92 VRB6      30.00F FOG
RUSSELL        LGT RAIN  33  33 100 SE12      30.04S FOG     WCI  24
$$

KSZ061>065-074>080-084>089-311600-
SOUTHWEST KANSAS

CITY           SKY/WX    TMP DP  RH WIND       PRES   REMARKS
DODGE CITY     LGT RAIN  34  32  92 S17       30.01F FOG     WCI  23
ELKHART          N/A     35  28  75 S13         N/A  WCI  26
GARDEN CITY    LGT RAIN  34  33  96 S16       29.96F FOG     WCI  24
LIBERAL        CLOUDY    36  30  80 S16G22    30.02S WCI  26
PRATT          MIX PCPN  34  32  93 S15       30.08S WCI  24
$$

KSZ066>073-081>083-090>101-311600-
SOUTHEAST KANSAS

CITY           SKY/WX    TMP DP  RH WIND       PRES   REMARKS
CHANUTE        CLOUDY    40  32  73 SE7       30.23S
COFFEYVILLE    CLOUDY    40  32  73 E5        30.23R
HUTCHINSON     LGT RAIN  34  31  88 SE10      30.12F FOG     WCI  26
MEDICINE LODGE   N/A     35  34  96 S6        30.11F
NEWTON         CLOUDY    34  27  75 SE10      30.15F WCI  26
PARSONS        CLOUDY    41  31  67 CALM      30.24S
WICHITA INTL   LGT RAIN  35  30  82 SE8       30.14F
WICHITA JABRA  LGT RAIN  35  30  82 SE7       30.14F
WICHITA MCCONL LGT RAIN  36  30  80 SE8       30.15F
WINFIELD       LGT RAIN  37  31  78 SE7       30.18S
$$

KSZ007>012-019>026-033>040-048>060-102>105-311600-
NORTHEAST KANSAS

CITY           SKY/WX    TMP DP  RH WIND       PRES   REMARKS
CONCORDIA      LGT SNOW  32  32 100 SE10      30.11F FOG     WCI  24
EMPORIA        LGT RAIN  37  35  92 SE8       30.19S
LAWRENCE       LGT RAIN  35  33  92 E9        30.22F FOG
MANHATTAN      LGT RAIN  37  36  96 S6        30.17F FOG
MARYSVILLE     LGT RAIN  32  32 100 SE8       30.16S
OLATHE IND     LGT RAIN  37  36  96 E6        30.23S FOG
OLATHE EXE     LGT RAIN  37  36  96 E3        30.23S FOG
SALINA         LGT SNOW  35  32  88 SE12      30.13F FOG     WCI  27
TOPEKA BILLARD CLOUDY    37  36  96 SE6       30.21S
TOPEKA FORBES  CLOUDY    37  35  92 SE5       30.20S FOG
$$



USA.gov is the U.S. government's official web portal to all federal, state and local government web resources and services.